GW2141 Weather Reports


time (UTC)temp
C
wind
direction
speed
KPH
gust
KPH
rain 1hr
cm
rain 24hr
cm
rain mn
cm
humidity
%
barometer
mb
20260504190014 21 187 11.3 14.5 0.00 0.00 0.00 34 1013.3
20260504185017 21 172 12.9 22.5 0.00 0.00 0.00 34 1013.4
20260504184113 21 181 16.1 19.3 0.00 0.00 0.00 33 1013.6
20260504183114 20 166 4.8 8.0 0.00 0.00 0.00 33 1013.8
20260504182114 20 180 14.5 17.7 0.00 0.00 0.00 32 1013.8
20260504180113 20 180 16.1 20.9 0.00 0.00 0.00 34 1014.2
20260504175114 20 177 11.3 16.1 0.00 0.00 0.00 35 1014.3
20260504174114 20 199 12.9 17.7 0.00 0.00 0.00 34 1014.4
20260504173114 20 177 8.0 16.1 0.00 0.00 0.00 33 1014.4
20260504172115 20 177 9.7 14.5 0.00 0.00 0.00 34 1014.6
20260504171114 20 184 11.3 17.7 0.00 0.00 0.00 34 1014.6
20260504170115 20 180 11.3 14.5 0.00 0.00 0.00 34 1014.6
20260504160314 18 180 6.4 9.7 0.00 0.00 0.00 42 1015.5
20260504150416 17 166 8.0 11.3 0.00 0.00 0.00 46 1015.9
20260504140514 16 155 9.7 14.5 0.00 0.00 0.00 48 1016.1
20260504130713 15 170 11.3 17.7 0.00 0.00 0.00 54 1016.5
20260504081313 12 174 9.7 12.9 0.00 0.00 0.00 72 1017.1
20260504080413 12 156 6.4 11.3 0.00 0.00 0.00 74 1017.2
20260504045913 9 180 0.0 0.0 0.00 0.00 0.00 75 1017.4
20260504044928 10 180 0.0 0.0 0.00 0.00 0.00 74 1017.4
20260504043913 10 180 0.0 0.0 0.00 0.00 0.00 74 1017.5
20260504042913 10 180 0.0 1.6 0.00 0.00 0.00 76 1017.4
20260504041913 9 180 0.0 1.6 0.00 0.00 0.00 76 1017.3
20260504041012 9 180 0.0 1.6 0.00 0.00 0.00 76 1017.2
20260504040030 9 180 0.0 0.0 0.00 0.00 0.00 75 1017.0
20260504035023 10 180 0.0 0.0 0.00 0.00 0.00 74 1017.1
20260504034025 9 180 0.0 0.0 0.00 0.00 0.00 78 1016.9
20260504033122 9 180 0.0 0.0 0.00 0.00 0.00 79 1016.8
20260504032222 9 180 0.0 0.0 0.00 0.00 0.00 75 1016.8
20260504031223 9 180 0.0 0.0 0.00 0.00 0.00 75 1016.8
20260504030223 9 180 0.0 0.0 0.00 0.00 0.00 74 1016.8
20260504025322 9 180 0.0 0.0 0.00 0.00 0.00 73 1016.7
20260504024324 9 180 0.0 0.0 0.00 0.00 0.00 72 1016.7
20260504023324 9 180 0.0 0.0 0.00 0.00 0.00 72 1016.7
20260504021323 9 180 0.0 0.0 0.00 0.00 0.00 68 1016.8
20260504020422 9 180 0.0 0.0 0.00 0.00 0.00 65 1016.9
20260504015424 10 180 0.0 0.0 0.00 0.00 0.00 65 1016.7
20260504014438 10 180 0.0 0.0 0.00 0.00 0.00 61 1016.7
20260504012423 10 180 0.0 0.0 0.00 0.00 0.00 63 1016.4
20260504011521 10 180 0.0 1.6 0.00 0.00 0.00 66 1016.4
20260504005540 11 180 0.0 0.0 0.00 0.00 0.00 63 1016.3
20260504004523 11 180 0.0 0.0 0.00 0.00 0.00 58 1016.2
20260504000523 12 180 0.0 0.0 0.00 0.00 0.00 50 1016.0
20260503235622 13 180 0.0 0.0 0.00 0.00 0.00 46 1015.8
20260503233622 14 180 0.0 0.0 0.00 0.00 0.00 40 1015.5
20260503232623 15 180 0.0 0.0 0.00 0.00 0.00 37 1015.7
20260503231623 15 122 0.0 4.8 0.00 0.00 0.00 35 1015.8
20260503230622 15 180 0.0 0.0 0.00 0.00 0.00 33 1015.7
20260503224722 16 162 3.2 8.0 0.00 0.00 0.00 32 1015.7
20260503223722 16 305 0.0 1.6 0.00 0.00 0.00 32 1015.6
20260503222721 17 337 1.6 4.8 0.00 0.00 0.00 29 1015.6
20260503221725 17 90 1.6 4.8 0.00 0.00 0.00 30 1015.6
20260503220723 17 186 6.4 12.9 0.00 0.00 0.00 31 1015.6
20260503215722 17 140 3.2 6.4 0.00 0.00 0.00 31 1015.7
20260503214724 17 50 0.0 0.0 0.00 0.00 0.00 32 1015.6
20260503213723 17 186 3.2 6.4 0.00 0.00 0.00 32 1015.7
20260503212740 16 38 6.4 9.7 0.00 0.00 0.00 32 1015.7
20260503211824 16 223 3.2 11.3 0.00 0.00 0.00 32 1015.8
20260503210823 16 202 8.0 14.5 0.00 0.00 0.00 33 1015.6
20260503205823 16 183 8.0 19.3 0.00 0.00 0.00 32 1015.7
20260503204823 16 181 11.3 16.1 0.00 0.00 0.00 32 1015.9
20260503203822 16 161 6.4 11.3 0.00 0.00 0.00 32 1015.7
20260503202822 16 153 6.4 12.9 0.00 0.00 0.00 33 1016.0
20260503201823 15 340 9.7 19.3 0.00 0.00 0.00 33 1016.1
20260503200922 15 129 4.8 17.7 0.00 0.00 0.00 33 1016.2
20260503195922 15 163 6.4 11.3 0.00 0.00 0.00 33 1016.4
20260503193923 15 356 11.3 19.3 0.00 0.00 0.00 32 1016.5
20260503193021 15 265 4.8 6.4 0.00 0.00 0.00 33 1016.7